sat.trackr.live / text

‹ back to catalog

JILIN-1 08

NORAD 43160 · 2018-008F

PAYLOAD ACTIVE UNKNOWN

§ Identity

Operator
Country
PRC
Launch date
2018-01-19
Launch site
JSC
Launch vehicle
Mass (kg)
RCS (m²)

External: N2YO · Heavens-Above · Gunter

§ Orbital elements

Epoch: 2026-05-25T04:34:06.244320Z

Period
93.91 min
Inclination
97.1816°
Eccentricity
0.0007271
Mean motion
15.33377923 rev/d
Perigee alt
460.8 km
Apogee alt
470.7 km
Semi-major
6,843.9 km
B*
1.8621e-4
RAAN
165.0775°
Arg perigee
142.6772°
Mean anomaly
217.4977°
Rev number
46,142

§ Raw data

JILIN-1 081 43160U 18008F   26145.19035005  .00005934  00000+0  18621-3 0  99932 43160  97.1816 165.0775 0007271 142.6772 217.4977 15.33377923461422

JSON: /api/v1/satellites/43160 · /tle

For live sub-satellite position, see the globe view (requires WebGL).

§ Visibility from observer

Set your observer location to see the next 7 days of passes ≥ 10°. The values pass through the URL so the page stays shareable.

No JS? Fill the form by hand. The geolocation button needs JavaScript.

§ Radio — SatNOGS DB

ModeDescriptionDownlinkUplink
BPSK Telemetry 2.245 GHz

1 transmitter · refreshed weekly from db.satnogs.org